Regional Weather Roundup
Issued by NWS Wakefield, VA

Home | Current Version | Previous Version | Text Only | Print | Product List | Glossary Off
Versions: 1 2 3 4 5 6 7 8 9 10 11 12 13 14 15 16 17 18 19 20 21 22 23 24 25 26 27 28 29 30 31 32 33 34 35 36 37 38 39 40 41 42 43 44 45 46 47 48 49 50

318
ASUS41 KAKQ 211315
RWRAKQ

REGIONAL WEATHER ROUNDUP
NATIONAL WEATHER SERVICE WAKEFIELD VA
900 AM EDT THU SEP 21 2017

Note: "fair" indicates few or no clouds below 12,000 feet with no
significant weather and/or obstructions to visibility. * = Denotes
station may not report precipitation (e.g., rain,snow,etc.),
thunder or fog.

VAZ042-051-052>054-056-211400-
NORTHERN VIRGINIA

CITY           SKY/WX    TMP DP  RH WIND       PRES   REMARKS
WASH NATIONAL  MOSUNNY   74  64  71 N7        30.07S
DULLES         MOSUNNY   69  64  84 N5        30.08S
FORT BELVOIR   SUNNY     74  62  66 NW5       30.06S
QUANTICO       MOSUNNY   73  66  78 NW3       30.07S
FREDERICKSBRG* SUNNY     69  64  83 CALM      30.06S
STAFFORD*      SUNNY     72  67  83 N5        30.10S
WARRENTON      SUNNY     68  60  75 CALM      30.08R
CULPEPER*      SUNNY     68  63  83 CALM      30.09S
MANASSAS*      SUNNY     72  64  76 N5        30.08S
LEESBURG*      SUNNY     70  64  83 CALM      30.10R
WINCHESTER     SUNNY     64  61  88 CALM      30.10S
FRONT ROYAL*   SUNNY     64  63  94 CALM      30.10S
LURAY*         MOSUNNY   63  63 100 CALM      30.12S
$$

VAZ048-049-060>072-079>083-211400-
CENTRAL AND SOUTH CENTRAL VIRGINIA

CITY           SKY/WX    TMP DP  RH WIND       PRES   REMARKS
RICHMOND       MOSUNNY   73  64  73 N8        30.05S
CHESTERFIELD*  NOT AVBL
PETERSBURG*    MOSUNNY   71  64  80 CALM      30.06S
HANOVER        SUNNY     72  62  71 N5        30.07R
TAPPAHANNOCK*  SUNNY     72  64  73 N3        30.06R
QUINTON*       FAIR      71  64  80 NW6       30.05S
CHARLOTTSVILLE MOSUNNY   71  67  87 CALM      30.08R
GORDONSVILLE*  SUNNY     70  67  88 CALM      30.08R
ORANGE*        SUNNY     70  61  73 CALM      30.09R
LOUISA*        SUNNY     72  63  73 N6        30.08R
BUMPASS*       NOT AVBL
FARMVILLE*     PTSUNNY   74  69  83 N5        30.06S
CREWE*         FAIR      71  71 100 CALM      30.07R
FORT PICKETT*  FAIR      71  70  96 N6        30.07R
CHASE CITY*    FAIR      71  71 100 CALM      30.07R
CLARKSVILLE*   FAIR      70  66  88 N3        30.06R
SOUTH HILL*    SUNNY     71  67  88 N3        30.11S
LAWRENCEVILLE* FAIR      71  66  85 N3        30.05S
EMPORIA*       MOSUNNY   70  66  88 N5        30.06R
$$

VAZ088>098-211400-
SOUTHEAST VIRGINIA

CITY           SKY/WX    TMP DP  RH WIND       PRES   REMARKS
NORFOLK        SUNNY     77  68  73 VRB3      30.03R
VIRGINIA BEACH MOSUNNY   75  69  81 NW5       30.02R
NORFOLK NAVAL  MOSUNNY   77  68  73 N5        30.04R
WEST POINT*    SUNNY     70  64  83 CALM      30.06S
SALUDA*        FAIR      72  69  90 NW5       30.04S
NEWPORT NEWS   SUNNY     75  67  76 CALM      30.04R
LANGLEY AFB    MOSUNNY   75  67  77 N5        30.03R
FORT EUSTIS    SUNNY     76  67  74 NW5       30.02R
WILLIAMSBURG*  SUNNY     70  70 100 CALM      30.05R
HR EXEC AP*    FAIR      72  69  90 W3        30.04S
FRANKLIN*      SUNNY     70  66  87 N3        30.05S
US460-WAKEFLD  PTSUNNY   71  68  90 CALM      30.05R
$$

VAZ020-022-025-037-045-211400-
WEST CENTRAL AND SOUTHWEST VIRGINIA

CITY           SKY/WX    TMP DP  RH WIND       PRES   REMARKS
STAUNTON*      MOSUNNY   62  61  97 CALM      30.15R
WAYNESBORO*    MOSUNNY   65  64  99 CALM      30.14R
HOT SPRINGS VA SUNNY     67  57  71 NE6       30.23S
LYNCHBURG      SUNNY     72  64  76 N7        30.09R
DANVILLE       SUNNY     69  68  96 CALM      30.08R
SOUTH BOSTON*  FAIR      69  67  92 CALM      30.07R
MARTINSVILLE   SUNNY     67  65  90 CALM      30.12R
ROANOKE        MOSUNNY   70  65  84 CALM      30.14R
BLACKSBURG     SUNNY     66  64  96 CALM      30.19R
DUBLIN*        SUNNY     67  65  93 CALM      30.17S
MARION*        SUNNY     64  60  86 W5        30.21S
HILLSVILLE*    SUNNY     64  58  81 CALM      30.18R
RICHLANDS*     FAIR      64  60  89 CALM      30.20R
WISE*          SUNNY     66  66 100 CALM      30.21R
ABINGDON*      SUNNY     66  64  92 CALM      30.18R
$$

MDZ021>025-VAZ099-100-211400-
SOUTHERN MARYLAND AND THE DELMARVA PENINSULA

CITY           SKY/WX    TMP DP  RH WIND       PRES   REMARKS
PATUXENT RIVER MOSUNNY   73  68  84 NW7       30.04S
BAY BRIDGE APT SUNNY     73  66  78 N5        30.05S
LEONARDTOWN    SUNNY     72  64  78 CALM      30.06S
DOVER          MOSUNNY   72  64  78 NW8       30.03R
GEORGETOWN     SUNNY     75  66  73 N6        30.04R
EASTON         MOSUNNY   72  66  83 N3        30.08S
CAMBRIDGE      SUNNY     72  68  88 N6        30.04S
SALISBURY      SUNNY     75  69  81 NW6       30.03R
OCEAN CITY     SUNNY     75  69  81 N7        30.03R
WALLOPS ISLAND SUNNY     76  70  82 N5        30.03S
ACCOMACK*      SUNNY     74  72  91 CALM      30.03R
$$

NCZ012>017-030>032-211400-
NORTH CENTRAL AND EASTERN NORTH CAROLINA

CITY           SKY/WX    TMP DP  RH WIND       PRES   REMARKS
ROANOKE RAPIDS FAIR      72  70  94 MISG      30.04R
RALEIGH        MOSUNNY   74  66  76 CALM      30.06S
ELIZABETH CITY SUNNY     75  70  84 NW7       30.03R
AHOSKIE*         N/A     71  69  93 N3        30.04R
EDENTON*       SUNNY     74  71  88 CALM      30.04R
CURRITUCK*     SUNNY     72  67  82 CALM      30.03S
KILL DEVIL HLS SUNNY     73  69  87 CALM      30.01S
MANTEO         SUNNY     75  70  83 NW5       30.03R
CAPE HATTERAS  SUNNY     79  75  87 NW3       30.02R
TARBORO*       NOT AVBL
GOLDSBORO      SUNNY     73  73 100 CALM      30.02S
WASHINGTON     CLOUDY    75  70  85 N3        30.03S
GREENVILLE     CLOUDY    72  70  94 CALM      30.04S
NEW BERN       SUNNY     77  69  76 NW3       30.04S
WILMINGTON     SUNNY     77  72  84 NW3       30.04S
$$

VAZ048-211400-
ELSEWHERE

CITY           SKY/WX    TMP DP  RH WIND       PRES   REMARKS
HARRISBURG PA  PTSUNNY   71  65  81 NW7       30.07S
BALTIMORE      MOSUNNY   73  64  73 VRB3      30.06S
ANNAPOLIS      SUNNY     75  68  78 NW3       30.05S
ANDREWS AFB    SUNNY     73  63  71 N7        30.06R
PHILADELPHIA   MOSUNNY   76  63  64 N9        30.04R
HENDERSON NC   SUNNY     69  62  80 N5        30.06S
GREENSBORO     MOSUNNY   73  66  78 N6        30.08R
ROCKY MOUNT    SUNNY     73  70  90 CALM      30.04S
$$

VAZ100-211400-
MARINE

STATION/POSITION TIME  TEMP    WIND        PRES    WAVE   SWELL
                       AIR SEA DIR/SP/G            HT/PER HT/PER
                 (UTC) (F)     (DEG/KT/KT) (MB)    (FT/S) (FT/S)
BRANDYWINE LGT   1236   74     340/ 12/ 14 1017.0R
CAPE MAY NJ      1248   75 74  350/  7/ 11 1016.1R
LEWES DE         1236   74 73  330/  8/  9 1016.3R
15NM E FENWICK I 1250   73 71  320/ 10/ 12 1016.3R   5/10   5/10
OCEAN-CITY-INLET 1248   74 73  350/  7/ 10 1017.0R
WACHAPREAGUE VA  1248   78 74  340/  2/  4 1016.7R
THOMAS POINT MD  1300   72 75  360/  7/  7   N/A
GOOSES REEF MD   1300   74 75  360/ 10/ 12 1018.0
COVE POINT MD    1248   73     360/ 10/ 12 1018.0R
SOLOMONS ISLAND  1236   71 76  330/  5/  7 1016.8F
BISHOPS HEAD MD  1248   73 76   10/  6/  8 1017.1R
PINEY POINT MD   1248          330/  6/  7   N/A
POTOMAC MD       1300   75 75   30/  8/ 10 1016.4
CAMBRIDGE MD     1248   73 75              1018.0S
LEWISETTA VA     1248   73 76  330/  5/  6 1017.1R
RAPPAHANNOCK LGT 1248          360/ 11/ 12 1017.4R
STINGRAY PT      1300   74 75   30/ 12/ 12 1017.3    1/ 2
YORK RVR RNG VA  1248   73      10/ 11/ 12 1017.4R
YORKTOWN VA      1248   72 76  330/  9/ 10 1016.9R
JAMESTOWN VA     1300      77  330/  6/  6   N/A     0
DOMINION TERM VA 1248   75     310/  5/  7 1017.1R
KIPTOPEKE VA     1248      75   20/  5/  7   N/A
CHES BAY BRIDGE  1248   76 75  340/ 10/ 11 1016.6R
CAPE HENRY VA    1248   75     340/  6/  7   N/A
WILLOUBY STN VA  1236   74     350/  6/  6 1016.8R
S CRANEY ISL VA  1248   75     310/  3/  4 1016.7R
CAPE HENRY BUOY  1230      74                N/A     3/13   2/13
1ST LANDING BUOY 1300   75 75              1016.6    2/ 4
64NM E OF VA BCH 1250   70 69  310/  4/  6 1016.5R   8/11   7/11
DUCK PIER NC     1248   74 75  310/  6/  8 1016.2R
44100 DUCK FRF   1205      74                N/A     4/11   2/11
44056 DUCK FRF   1230      75                N/A     4/10   2/13
OREGON INLET NC  1236   75 76  290/  6/  8 1016.3R
HATTERAS NC      1248   76 77  340/  6/  7 1016.5R
DIAMOND SHLS NC  1250   75 75  320/  4/  4 1016.2R   4/10   3/10
CAPE LOOKOUT NC  1300   78     290/  5/  7 1016.6R
$$




USA.gov is the U.S. government's official web portal to all federal, state and local government web resources and services.